OE3GWU-13 Weather Reports


time (UTC)temp
C
wind
direction
speed
KPH
gust
KPH
rain 1hr
cm
rain 24hr
cm
rain mn
cm
humidity
%
barometer
mb
20260508005004 5 352 0.0 1.6 0.00 0.00 0.00 87 1018.9
20260508001004 4 338 0.0 1.6 0.00 0.00 0.00 92 1019.0
20260507235004 5 335 0.0 1.6 0.00 0.00 0.00 92 1019.0
20260507232004 5 353 0.0 0.0 0.00 0.00 0.00 94 1019.0
20260507230005 3 350 0.0 0.0 0.00 0.00 0.00 97 1019.3
20260507223004 4 342 0.0 0.0 0.00 0.00 0.00 96 1019.6
20260507222004 4 3 0.0 0.0 0.00 0.00 0.00 96 1019.3
20260507220004 5 346 0.0 1.6 0.00 0.00 0.00 95 1019.3
20260507215004 5 348 0.0 1.6 0.00 0.00 0.00 95 1019.3
20260507211004 5 355 1.6 3.2 0.00 0.00 0.00 93 1019.3
20260507210008 5 336 1.6 4.8 0.00 0.00 0.00 92 1019.0
20260507205004 5 0 0.0 3.2 0.00 0.00 0.00 93 1019.3
20260507203004 5 349 0.0 0.0 0.00 0.00 0.00 93 1019.0
20260507202005 5 349 0.0 0.0 0.00 0.00 0.00 92 1019.0
20260507201004 6 346 0.0 0.0 0.00 0.00 0.00 90 1019.0
20260507195004 6 315 1.6 3.2 0.00 0.00 0.00 88 1018.6
20260507193004 6 341 0.0 0.0 0.00 0.00 0.00 89 1018.4
20260507192004 6 350 0.0 0.0 0.00 0.00 0.00 91 1018.3
20260507191004 6 351 0.0 0.0 0.00 0.00 0.00 88 1018.3
20260507190005 7 351 0.0 0.0 0.00 0.00 0.00 87 1018.3
20260507185004 7 350 0.0 0.0 0.00 0.00 0.00 85 1017.9
20260507184004 8 347 0.0 0.0 0.00 0.00 0.00 83 1017.9
20260507182004 9 341 0.0 0.0 0.00 0.00 0.00 80 1017.6
20260507181004 9 336 0.0 1.6 0.00 0.00 0.00 79 1017.3
20260507180004 10 333 1.6 3.2 0.00 0.00 0.00 77 1017.3
20260507175004 10 337 0.0 3.2 0.00 0.00 0.00 76 1016.9
20260507174004 10 241 3.2 3.2 0.00 0.00 0.00 76 1017.3
20260507173008 10 332 1.6 8.0 0.00 0.00 0.00 76 1016.9
20260507171004 10 339 1.6 4.8 0.00 0.00 0.00 76 1016.9
20260507170004 11 194 4.8 8.0 0.00 0.00 0.00 74 1016.9
20260507163004 11 192 4.8 8.0 0.00 0.00 0.00 71 1016.9
20260507162004 12 347 0.0 4.8 0.00 0.00 0.00 68 1017.3
20260507161004 12 14 0.0 3.2 0.00 0.00 0.00 67 1016.9
20260507160005 12 279 3.2 12.9 0.00 0.00 0.00 68 1016.9
20260507155004 12 195 8.0 12.9 0.00 0.00 0.00 64 1016.9
20260507154005 12 203 3.2 8.0 0.00 0.00 0.00 65 1016.9
20260507153004 12 324 1.6 9.7 0.00 0.00 0.00 66 1016.6
20260507152004 12 256 3.2 9.7 0.00 0.00 0.00 66 1016.6
20260507143004 14 166 1.6 9.7 0.00 0.00 0.00 60 1016.6
20260507142004 14 214 3.2 4.8 0.00 0.00 0.00 58 1016.6
20260507141004 13 335 0.0 4.8 0.00 0.00 0.00 62 1016.6
20260507140005 13 357 1.6 4.8 0.00 0.00 0.00 58 1016.6
20260507135004 14 320 1.6 14.5 0.00 0.00 0.00 57 1016.6
20260507134004 13 6 6.4 14.5 0.00 0.00 0.00 59 1016.6
20260507133005 15 358 4.8 16.1 0.00 0.00 0.00 56 1016.6
20260507132004 13 13 3.2 14.5 0.00 0.00 0.00 59 1016.6
20260507125004 14 127 3.2 9.7 0.00 0.00 0.00 64 1016.3
20260507123004 15 354 1.6 8.0 0.00 0.00 0.00 59 1016.3
20260507121004 13 349 3.2 8.0 0.00 0.00 0.00 66 1016.6
20260507120005 13 238 4.8 9.7 0.00 0.00 0.00 66 1016.3
20260507115004 13 205 3.2 14.5 0.00 0.00 0.00 64 1016.3
20260507113004 13 201 4.8 11.3 0.00 0.00 0.00 62 1016.6
20260507111004 13 226 16.1 22.5 0.00 0.00 0.00 62 1016.6
20260507110005 15 194 11.3 14.5 0.00 0.00 0.00 62 1016.6
20260507105004 13 327 3.2 8.0 0.00 0.00 0.00 62 1016.6
20260507103004 13 234 4.8 12.9 0.00 0.00 0.00 67 1016.6
20260507101004 11 334 3.2 8.0 0.00 0.00 0.00 71 1016.6
20260507100005 12 161 4.8 12.9 0.00 0.00 0.00 68 1016.7
20260507092004 13 177 8.0 12.9 0.00 0.00 0.00 67 1016.3
20260507091004 12 334 3.2 9.7 0.00 0.00 0.00 67 1016.3
20260507090005 13 183 4.8 9.7 0.00 0.00 0.00 68 1016.3
20260507085004 12 211 8.0 14.5 0.00 0.00 0.00 73 1016.3
20260507082004 11 7 3.2 8.0 0.00 0.00 0.00 76 1015.9
20260507080005 10 355 3.2 4.8 0.00 0.00 0.00 77 1015.6
20260507075004 10 174 3.2 8.0 0.00 0.00 0.00 80 1015.6
20260507074004 11 294 3.2 12.9 0.00 0.00 0.00 79 1015.6
20260507073004 10 168 11.3 14.5 0.00 0.00 0.00 80 1015.6
20260507072004 10 355 1.6 9.7 0.00 0.00 0.00 82 1015.6
20260507071004 9 184 3.2 12.9 0.00 0.00 0.00 84 1015.6
20260507070009 9 193 9.7 12.9 0.00 0.00 0.00 85 1015.6
20260507063008 8 234 3.2 9.7 0.00 0.00 0.00 87 1015.6
20260507061004 7 204 4.8 9.7 0.00 0.00 0.00 90 1015.6
20260507060004 7 207 0.0 4.8 0.00 0.00 0.00 91 1015.6
20260507053005 7 294 1.6 9.7 0.00 0.00 0.00 92 1015.0
20260507050005 6 332 3.2 9.7 0.00 0.00 0.00 93 1014.6
20260507044004 6 306 4.8 8.0 0.00 0.00 0.00 94 1014.6
20260507043004 6 307 3.2 3.2 0.00 0.00 0.00 94 1014.6
20260507041004 6 334 3.2 9.7 0.00 0.00 0.00 94 1014.2
20260507034004 6 233 3.2 9.7 0.00 0.03 0.00 96 1013.9
20260507033004 6 275 3.2 9.7 0.00 0.03 0.00 96 1013.9
20260507025004 7 331 1.6 4.8 0.00 0.03 0.00 95 1013.5
20260507024004 7 271 3.2 4.8 0.00 0.03 0.00 95 1013.9
20260507023004 7 242 1.6 8.0 0.00 0.03 0.00 95 1013.5
20260507022004 7 188 1.6 9.7 0.00 0.03 0.00 95 1013.5
20260507014004 7 299 3.2 8.0 0.00 0.03 0.00 95 1013.5
20260507013004 7 216 3.2 4.8 0.00 0.03 0.00 95 1013.5
20260507012004 8 304 1.6 4.8 0.00 0.03 0.00 95 1013.5
20260507011004 8 192 3.2 8.0 0.00 0.03 0.00 95 1013.2
20260507010005 8 332 3.2 8.0 0.00 0.03 0.00 95 1013.2